TimeCDT,TemperatureF,Dew PointF,Humidity,Sea Level PressureIn,VisibilityMPH,Wind Direction,Wind SpeedMPH,Gust SpeedMPH,PrecipitationIn,Events,Conditions,WindDirDegrees,DateUTC
12:53 AM,50.0,25.0,38,29.82,10.0,West,9.2,-,N/A,,Partly Cloudy,280,2012-10-18 05:53:00
1:53 AM,51.1,23.0,33,29.84,10.0,West,9.2,-,N/A,,Scattered Clouds,280,2012-10-18 06:53:00
2:53 AM,51.1,24.1,35,29.84,10.0,West,12.7,-,N/A,,Scattered Clouds,280,2012-10-18 07:53:00
3:53 AM,51.1,25.0,36,29.84,10.0,West,12.7,-,N/A,,Mostly Cloudy,280,2012-10-18 08:53:00
4:53 AM,52.0,24.1,34,29.85,10.0,West,17.3,25.3,N/A,,Scattered Clouds,280,2012-10-18 09:53:00
5:53 AM,52.0,23.0,32,29.87,10.0,WNW,13.8,24.2,N/A,,Scattered Clouds,290,2012-10-18 10:53:00
6:53 AM,50.0,24.1,36,29.88,10.0,WNW,18.4,26.5,N/A,,Partly Cloudy,290,2012-10-18 11:53:00
7:53 AM,46.9,24.1,41,29.88,10.0,West,16.1,-,N/A,,Clear,260,2012-10-18 12:53:00
8:53 AM,52.0,23.0,32,29.88,10.0,WNW,20.7,27.6,N/A,,Clear,290,2012-10-18 13:53:00
9:53 AM,55.0,21.9,28,29.88,10.0,WNW,26.5,34.5,N/A,,Clear,300,2012-10-18 14:53:00
10:53 AM,57.9,19.9,23,29.88,10.0,WNW,28.8,41.4,N/A,,Clear,300,2012-10-18 15:53:00
11:53 AM,60.1,18.0,20,29.86,10.0,NW,27.6,36.8,N/A,,Clear,320,2012-10-18 16:53:00
12:53 PM,63.0,19.0,18,29.84,10.0,NW,33.4,40.3,N/A,,Clear,310,2012-10-18 17:53:00
1:53 PM,64.9,19.9,18,29.82,9.0,WNW,29.9,47.2,N/A,,Clear,300,2012-10-18 18:53:00
2:53 PM,64.9,19.9,18,29.80,5.0,NW,27.6,42.6,N/A,,Widespread Dust,310,2012-10-18 19:53:00
3:53 PM,64.9,18.0,16,29.79,3.0,WNW,28.8,43.7,N/A,,Widespread Dust,300,2012-10-18 20:53:00
4:25 PM,64.4,17.6,16,29.80,2.0,WNW,27.6,34.5,N/A,,Widespread Dust,290,2012-10-18 21:25:00
4:53 PM,64.9,18.0,16,29.79,2.0,WNW,20.7,33.4,N/A,,Widespread Dust,300,2012-10-18 21:53:00
5:53 PM,64.0,18.0,17,29.80,2.0,WNW,20.7,34.5,N/A,,Widespread Dust,300,2012-10-18 22:53:00
6:53 PM,63.0,18.0,18,29.82,2.5,WNW,17.3,-,N/A,,Widespread Dust,300,2012-10-18 23:53:00
7:53 PM,61.0,19.9,21,29.84,5.0,WNW,13.8,-,N/A,,Widespread Dust,290,2012-10-19 00:53:00
8:53 PM,59.0,21.0,23,29.84,6.0,WNW,13.8,-,N/A,,Widespread Dust,290,2012-10-19 01:53:00
9:53 PM,59.0,19.9,22,29.84,6.0,WNW,17.3,-,N/A,,Widespread Dust,290,2012-10-19 02:53:00
10:53 PM,57.0,21.0,25,29.86,7.0,WNW,16.1,-,N/A,,Partly Cloudy,300,2012-10-19 03:53:00
11:53 PM,55.9,21.9,27,29.85,8.0,NW,17.3,-,N/A,,Partly Cloudy,310,2012-10-19 04:53:00